Change the Weather History Date:

Friday, January 25, 2013

  Actual Average Record
Temperature  
Mean Temperature 48 °F 37 °F  
Max Temperature 57 °F 48 °F 67 °F (1952)
Min Temperature 39 °F 27 °F 0 °F (1898)
Degree Days  
Heating Degree Days 17 28  
Month to date heating degree days 831 722  
Since 1 July heating degree days 2335 2479  
Cooling Degree Days 0 0  
Month to date cooling degree days 0 0  
Year to date cooling degree days 0 0  
Moisture  
Dew Point 34 °F    
Average Humidity 59    
Maximum Humidity 70    
Minimum Humidity 47    
Precipitation  
Precipitation 0.00 in 0.01 in 0.87 in (1962)
Month to date precipitation T 0.30  
Year to date precipitation T 0.30  
Snow  
Snow 0.00 in - - ()
Month to date snowfall 0.2  
Since 1 July snowfall 0.7  
Snow Depth 0.00 in    
Sea Level Pressure  
Sea Level Pressure 30.18 in    
Wind  
Wind Speed 3 mph (NNW)    
Max Wind Speed 10 mph    
Max Gust Speed 13 mph    
Visibility 10 miles    
Events      
T = Trace of Precipitation, MM = Missing Value Source: NWS Daily Summary

Daily Weather History Graph

Daily Weather History Graph

Search for Another Location

Airport or City:

Trip Planner

Search our weather history database for the weather conditions in past years. The results will help you decide how hot, cold, wet, or windy it might be!

Date:

Astronomy

Jan. 25, 2013 Rise Set
Actual Time 7:09 AM MST 5:28 PM MST
Civil Twilight 6:42 AM MST 5:55 PM MST
Nautical Twilight 6:12 AM MST 6:25 PM MST
Astronomical Twilight 5:42 AM MST 6:56 PM MST
Moon 4:28 PM MST (1/25) 5:50 AM MST (1/25)
Length of Visible Light 11h 12m
Length of Day
10h 18m
Waxing Gibbous, 98% of the Moon is Illuminated
Jan 25
Waxing Gibbous
Jan 26
Full
Feb 3
Last Quarter
Feb 10
New
Feb 17
First Quarter

Hourly Weather History & Observations

Time (MST) Temp. Windchill Dew Point Humidity Pressure Visibility Wind Dir Wind Speed Gust Speed Precip Events Conditions
12:52 AM 46.0 °F 43.9 °F 33.1 °F 61% 30.21 in 10.0 mi NW 4.6 mph - N/A   Scattered Clouds
1:52 AM 42.1 °F 38.4 °F 30.0 °F 62% 30.21 in 10.0 mi East 5.8 mph - N/A   Scattered Clouds
2:52 AM 44.1 °F 40.1 °F 32.0 °F 63% 30.19 in 10.0 mi NNE 6.9 mph - N/A   Scattered Clouds
3:52 AM 44.1 °F 42.5 °F 32.0 °F 63% 30.17 in 10.0 mi North 3.5 mph - N/A   Scattered Clouds
4:52 AM 44.1 °F 41.5 °F 32.0 °F 63% 30.15 in 10.0 mi NNE 4.6 mph - N/A   Mostly Cloudy
5:52 AM 39.9 °F 36.7 °F 30.0 °F 68% 30.19 in 10.0 mi NW 4.6 mph - N/A   Partly Cloudy
6:52 AM 41.0 °F 39.0 °F 30.9 °F 67% 30.21 in 10.0 mi NNW 3.5 mph - N/A   Scattered Clouds
7:18 AM 39.2 °F 37.0 °F 30.2 °F 70% 30.29 in 10.0 mi NE 3.5 mph - N/A   Scattered Clouds
7:52 AM 41.0 °F 37.1 °F 28.9 °F 62% 30.23 in 10.0 mi NNW 5.8 mph - N/A   Scattered Clouds
8:52 AM 44.1 °F 40.8 °F 28.9 °F 55% 30.25 in 10.0 mi NNW 5.8 mph - N/A   Overcast
9:52 AM 48.9 °F - 30.0 °F 48% 30.24 in 10.0 mi Calm Calm - N/A   Mostly Cloudy
10:52 AM 51.1 °F - 34.0 °F 52% 30.24 in 10.0 mi WNW 5.8 mph - N/A   Overcast
11:52 AM 53.1 °F - 35.1 °F 50% 30.21 in 10.0 mi WNW 5.8 mph - N/A   Overcast
12:52 PM 53.1 °F - 36.0 °F 52% 30.18 in 10.0 mi WSW 6.9 mph - N/A   Mostly Cloudy
1:52 PM 55.0 °F - 36.0 °F 49% 30.15 in 10.0 mi WNW 5.8 mph - N/A   Mostly Cloudy
2:52 PM 55.0 °F - 37.9 °F 53% 30.13 in 10.0 mi WNW 4.6 mph - N/A   Mostly Cloudy
3:52 PM 57.0 °F - 37.9 °F 49% 30.12 in 10.0 mi Calm Calm - N/A   Mostly Cloudy
4:52 PM 55.0 °F - 37.9 °F 53% 30.11 in 10.0 mi Calm Calm - N/A   Mostly Cloudy
5:52 PM 54.0 °F - 37.9 °F 55% 30.14 in 10.0 mi Calm Calm - N/A   Mostly Cloudy
6:52 PM 50.0 °F - 35.1 °F 57% 30.16 in 10.0 mi Calm Calm - N/A   Overcast
7:52 PM 48.0 °F - 34.0 °F 58% 30.17 in 10.0 mi Calm Calm - N/A   Overcast
8:52 PM 48.9 °F - 35.1 °F 59% 30.14 in 10.0 mi Calm Calm - N/A   Overcast
9:52 PM 50.0 °F - 36.0 °F 59% 30.12 in 10.0 mi Calm Calm - N/A   Mostly Cloudy
10:52 PM 48.9 °F - 36.0 °F 61% 30.12 in 10.0 mi NE 4.6 mph - N/A   Mostly Cloudy
11:52 PM 46.9 °F - 36.0 °F 66% 30.11 in 10.0 mi Calm Calm - N/A   Mostly Cloudy